Location: Chuathbaluk
(61.5726°N, 159.2454°W)
Time: 08:16:59
(UTC+00:00)

NUDT-PHONESAT - Pass Details

Date: 21 January 2021
Orbit: 479 x 498 km, 97.4° (Epoch: 08 March)

Event Time Altitude Azimuth Distance (km) Brightness Sun altitude
Rises 17:58:40 0° 15° (NNE) 2,613 ? -9.3°
Reaches altitude 10° 18:00:46 10° 14° (NNE) 1,725 ? -9.1°
Maximum altitude 18:04:28 75° 290° (WNW) 527 ? -8.7°
Drops below altitude 10° 18:08:09 10° 205° (SSW) 1,710 ? -8.3°
Sets 18:10:13 0° 203° (SSW) 2,588 ? -8.1°
